owner,sensor,date,latitude,longitude,vertical_datum,direction_of_sea_water_velocity,sea_water_speed,upward_sea_water_velocity,qcFlag 
TABS,ioos:station:wmo:42043:1,1997-08-01T00:00:00Z,28.9818,-94.9186,2.0,125.2616663,7.48294728,-99999.0,'11133222,11111222,99999999' 
TABS,ioos:station:wmo:42043:1,1997-08-01T00:30:00Z,28.9818,-94.9186,2.0,113.8212905,7.006925146,-99999.0,'11133222,11111222,99999999' 
TABS,ioos:station:wmo:42043:1,1997-08-01T01:00:00Z,28.9818,-94.9186,2.0,90.0,7.15,-99999.0,'11133222,11111222,99999999' 
TABS,ioos:station:wmo:42043:1,1997-08-01T01:30:00Z,28.9818,-94.9186,2.0,80.05512336,12.1018387,-99999.0,'11111222,11111222,99999999' 
TABS,ioos:station:wmo:42043:1,1997-08-01T02:00:00Z,28.9818,-94.9186,2.0,75.11747978,7.553383348,-99999.0,'11133222,11111222,99999999' 
TABS,ioos:station:wmo:42043:1,1997-08-01T02:30:00Z,28.9818,-94.9186,2.0,65.19784216,8.867970456,-99999.0,'11133222,11111222,99999999' 
TABS,ioos:station:wmo:42043:1,1997-08-01T03:00:00Z,28.9818,-94.9186,2.0,65.29460593,10.33607759,-99999.0,'11111222,11111222,99999999' 
TABS,ioos:station:wmo:42043:1,1997-08-01T03:30:00Z,28.9818,-94.9186,2.0,69.7455032,13.34521637,-99999.0,'11111222,11111222,99999999' 
TABS,ioos:station:wmo:42043:1,1997-08-01T04:00:00Z,28.9818,-94.9186,2.0,55.16824621,16.70256567,-99999.0,'11111222,11111222,99999999' 
TABS,ioos:station:wmo:42043:1,1997-08-01T04:30:00Z,28.9818,-94.9186,2.0,49.53579901,18.59858597,-99999.0,'11111222,11111222,99999999' 
TABS,ioos:station:wmo:42043:1,1997-08-01T05:00:00Z,28.9818,-94.9186,2.0,48.01481711,22.04982086,-99999.0,'11111222,11111222,99999999' 
TABS,ioos:station:wmo:42043:1,1997-08-01T05:30:00Z,28.9818,-94.9186,2.0,53.35967591,22.47018024,-99999.0,'11111222,11111222,99999999' 
TABS,ioos:station:wmo:42043:1,1997-08-01T06:00:00Z,28.9818,-94.9186,2.0,60.02896288,23.56058149,-99999.0,'11111222,11111222,99999999' 
TABS,ioos:station:wmo:42043:1,1997-08-01T06:30:00Z,28.9818,-94.9186,2.0,65.21710077,25.59747058,-99999.0,'11111222,11111222,99999999' 
TABS,ioos:station:wmo:42043:1,1997-08-01T07:00:00Z,28.9818,-94.9186,2.0,62.69543525,25.98527468,-99999.0,'11111222,11111222,99999999' 
TABS,ioos:station:wmo:42043:1,1997-08-01T07:30:00Z,28.9818,-94.9186,2.0,59.03308522,30.41527412,-99999.0,'11111222,11111222,99999999' 
TABS,ioos:station:wmo:42043:1,1997-08-01T08:00:00Z,28.9818,-94.9186,2.0,67.75681907,29.13832185,-99999.0,'11111222,11111222,99999999' 
TABS,ioos:station:wmo:42043:1,1997-08-01T08:30:00Z,28.9818,-94.9186,2.0,73.45005967,27.20714796,-99999.0,'11111222,11111222,99999999' 
TABS,ioos:station:wmo:42043:1,1997-08-01T09:00:00Z,28.9818,-94.9186,2.0,78.40117897,23.72447049,-99999.0,'11111222,11111222,99999999' 
TABS,ioos:station:wmo:42043:1,1997-08-01T09:30:00Z,28.9818,-94.9186,2.0,85.54143489,24.95552043,-99999.0,'11111222,11111222,99999999' 
TABS,ioos:station:wmo:42043:1,1997-08-01T10:00:00Z,28.9818,-94.9186,2.0,88.84655225,22.35452974,-99999.0,'11111222,11111222,99999999' 
TABS,ioos:station:wmo:42043:1,1997-08-01T10:30:00Z,28.9818,-94.9186,2.0,90.47665827,18.03062395,-99999.0,'11111222,11111222,99999999' 
TABS,ioos:station:wmo:42043:1,1997-08-01T11:00:00Z,28.9818,-94.9186,2.0,97.48058993,20.58520099,-99999.0,'11111222,11111222,99999999' 
TABS,ioos:station:wmo:42043:1,1997-08-01T11:30:00Z,28.9818,-94.9186,2.0,107.679478,21.10687566,-99999.0,'11111222,11111222,99999999' 
TABS,ioos:station:wmo:42043:1,1997-08-01T12:00:00Z,28.9818,-94.9186,2.0,111.2881927,18.86740311,-99999.0,'11111222,11111222,99999999' 
TABS,ioos:station:wmo:42043:1,1997-08-01T12:30:00Z,28.9818,-94.9186,2.0,107.6160579,19.69351416,-99999.0,'11111222,11111222,99999999' 
TABS,ioos:station:wmo:42043:1,1997-08-01T13:00:00Z,28.9818,-94.9186,2.0,111.9066357,17.18056169,-99999.0,'11111222,11111222,99999999' 
TABS,ioos:station:wmo:42043:1,1997-08-01T13:30:00Z,28.9818,-94.9186,2.0,113.4340335,19.48735231,-99999.0,'11111222,11111222,99999999' 
TABS,ioos:station:wmo:42043:1,1997-08-01T14:00:00Z,28.9818,-94.9186,2.0,117.4624976,17.13038237,-99999.0,'11111222,11111222,99999999' 
TABS,ioos:station:wmo:42043:1,1997-08-01T14:30:00Z,28.9818,-94.9186,2.0,111.2832862,18.07260911,-99999.0,'11111222,11111222,99999999' 
TABS,ioos:station:wmo:42043:1,1997-08-01T15:00:00Z,28.9818,-94.9186,2.0,104.2025255,13.36861997,-99999.0,'11111222,11111222,99999999' 
TABS,ioos:station:wmo:42043:1,1997-08-01T15:30:00Z,28.9818,-94.9186,2.0,109.371976,11.21493647,-99999.0,'11111222,11111222,99999999' 
TABS,ioos:station:wmo:42043:1,1997-08-01T16:00:00Z,28.9818,-94.9186,2.0,120.2894428,11.22192942,-99999.0,'11111222,11111222,99999999' 
TABS,ioos:station:wmo:42043:1,1997-08-01T16:30:00Z,28.9818,-94.9186,2.0,109.5437152,4.902448368,-99999.0,'11133222,11111222,99999999' 
TABS,ioos:station:wmo:42043:1,1997-08-01T17:00:00Z,28.9818,-94.9186,2.0,132.4958498,2.427694379,-99999.0,'11133222,11111222,99999999' 
TABS,ioos:station:wmo:42043:1,1997-08-01T17:30:00Z,28.9818,-94.9186,2.0,179.9997895,0.15,-99999.0,'11133222,11111222,99999999' 
TABS,ioos:station:wmo:42043:1,1997-08-01T18:00:00Z,28.9818,-94.9186,2.0,270.0004209,0.3,-99999.0,'11133222,11111222,99999999' 
TABS,ioos:station:wmo:42043:1,1997-08-01T18:30:00Z,28.9818,-94.9186,2.0,270.0004209,1.19,-99999.0,'11133222,11111222,99999999' 
TABS,ioos:station:wmo:42043:1,1997-08-01T19:00:00Z,28.9818,-94.9186,2.0,258.5908876,2.274950549,-99999.0,'11133222,11111222,99999999' 
TABS,ioos:station:wmo:42043:1,1997-08-01T19:30:00Z,28.9818,-94.9186,2.0,252.2605377,3.905700961,-99999.0,'11133222,11111222,99999999' 
TABS,ioos:station:wmo:42043:1,1997-08-01T20:00:00Z,28.9818,-94.9186,2.0,252.7811934,6.553716503,-99999.0,'11133222,11111222,99999999' 
TABS,ioos:station:wmo:42043:1,1997-08-01T20:30:00Z,28.9818,-94.9186,2.0,252.6524347,4.997299271,-99999.0,'11133222,11111222,99999999' 
TABS,ioos:station:wmo:42043:1,1997-08-01T21:00:00Z,28.9818,-94.9186,2.0,254.5987059,4.480903927,-99999.0,'11133222,11111222,99999999' 
TABS,ioos:station:wmo:42043:1,1997-08-01T21:30:00Z,28.9818,-94.9186,2.0,261.8234011,5.273604081,-99999.0,'11133222,11111222,99999999' 
TABS,ioos:station:wmo:42043:1,1997-08-01T22:00:00Z,28.9818,-94.9186,2.0,254.8677502,5.707906797,-99999.0,'11133222,11111222,99999999' 
TABS,ioos:station:wmo:42043:1,1997-08-01T22:30:00Z,28.9818,-94.9186,2.0,257.7561217,9.148070835,-99999.0,'11133222,11111222,99999999' 
TABS,ioos:station:wmo:42043:1,1997-08-01T23:00:00Z,28.9818,-94.9186,2.0,247.3099872,6.94769746,-99999.0,'11133222,11111222,99999999' 
TABS,ioos:station:wmo:42043:1,1997-08-01T23:30:00Z,28.9818,-94.9186,2.0,255.6838797,8.452467095,-99999.0,'11133222,11111222,99999999' 
TABS,ioos:station:wmo:42043:1,1997-08-02T00:00:00Z,28.9818,-94.9186,2.0,248.9272218,15.32481974,-99999.0,'11111222,11111222,99999999' 
TABS,ioos:station:wmo:42043:1,1997-08-02T00:30:00Z,28.9818,-94.9186,2.0,252.0440364,17.38681109,-99999.0,'11111222,11111222,99999999' 
TABS,ioos:station:wmo:42043:1,1997-08-02T01:00:00Z,28.9818,-94.9186,2.0,252.8397987,19.18396466,-99999.0,'11111222,11111222,99999999' 
TABS,ioos:station:wmo:42043:1,1997-08-02T01:30:00Z,28.9818,-94.9186,2.0,255.7885769,23.0555438,-99999.0,'11111222,11111222,99999999' 
TABS,ioos:station:wmo:42043:1,1997-08-02T02:00:00Z,28.9818,-94.9186,2.0,256.2393164,23.16484621,-99999.0,'11111222,11111222,99999999' 
TABS,ioos:station:wmo:42043:1,1997-08-02T02:30:00Z,28.9818,-94.9186,2.0,273.0687375,22.23187127,-99999.0,'11111222,11111222,99999999' 
TABS,ioos:station:wmo:42043:1,1997-08-02T03:00:00Z,28.9818,-94.9186,2.0,270.7961426,21.60208323,-99999.0,'11111222,11111222,99999999' 
TABS,ioos:station:wmo:42043:1,1997-08-02T03:30:00Z,28.9818,-94.9186,2.0,278.5006441,23.20490034,-99999.0,'11111222,11111222,99999999' 
TABS,ioos:station:wmo:42043:1,1997-08-02T04:00:00Z,28.9818,-94.9186,2.0,283.2929833,22.05077096,-99999.0,'11111222,11111222,99999999' 
TABS,ioos:station:wmo:42043:1,1997-08-02T04:30:00Z,28.9818,-94.9186,2.0,284.204048,24.90123893,-99999.0,'11111222,11111222,99999999' 
TABS,ioos:station:wmo:42043:1,1997-08-02T05:00:00Z,28.9818,-94.9186,2.0,284.5582326,23.71126526,-99999.0,'11111222,11111222,99999999' 
TABS,ioos:station:wmo:42043:1,1997-08-02T05:30:00Z,28.9818,-94.9186,2.0,290.6302526,24.52248152,-99999.0,'11111222,11111222,99999999' 
TABS,ioos:station:wmo:42043:1,1997-08-02T06:00:00Z,28.9818,-94.9186,2.0,291.2554581,25.90196325,-99999.0,'11111222,11111222,99999999' 
TABS,ioos:station:wmo:42043:1,1997-08-02T06:30:00Z,28.9818,-94.9186,2.0,294.9032795,30.06540371,-99999.0,'11111222,11111222,99999999' 
TABS,ioos:station:wmo:42043:1,1997-08-02T07:00:00Z,28.9818,-94.9186,2.0,288.8029491,30.06439256,-99999.0,'11111222,11111222,99999999' 
TABS,ioos:station:wmo:42043:1,1997-08-02T07:30:00Z,28.9818,-94.9186,2.0,285.1810513,29.02275142,-99999.0,'11111222,11111222,99999999' 
TABS,ioos:station:wmo:42043:1,1997-08-02T08:00:00Z,28.9818,-94.9186,2.0,278.8145474,28.19294238,-99999.0,'11111222,11111222,99999999' 
TABS,ioos:station:wmo:42043:1,1997-08-02T08:30:00Z,28.9818,-94.9186,2.0,282.1987147,28.206852,-99999.0,'11111222,11111222,99999999' 
TABS,ioos:station:wmo:42043:1,1997-08-02T09:00:00Z,28.9818,-94.9186,2.0,275.5079832,29.48612216,-99999.0,'11111222,11111222,99999999' 
TABS,ioos:station:wmo:42043:1,1997-08-02T09:30:00Z,28.9818,-94.9186,2.0,270.0004209,26.08,-99999.0,'11111222,11111222,99999999' 
TABS,ioos:station:wmo:42043:1,1997-08-02T10:00:00Z,28.9818,-94.9186,2.0,266.1812595,26.87966704,-99999.0,'11111222,11111222,99999999' 
TABS,ioos:station:wmo:42043:1,1997-08-02T10:30:00Z,28.9818,-94.9186,2.0,261.6203119,28.61546785,-99999.0,'11111222,11111222,99999999' 
TABS,ioos:station:wmo:42043:1,1997-08-02T11:00:00Z,28.9818,-94.9186,2.0,259.8640655,29.66291287,-99999.0,'11111222,11111222,99999999' 
TABS,ioos:station:wmo:42043:1,1997-08-02T11:30:00Z,28.9818,-94.9186,2.0,256.4774344,28.65431207,-99999.0,'11111222,11111222,99999999' 
TABS,ioos:station:wmo:42043:1,1997-08-02T12:00:00Z,28.9818,-94.9186,2.0,253.7226553,28.72120123,-99999.0,'11111222,11111222,99999999' 
TABS,ioos:station:wmo:42043:1,1997-08-02T12:30:00Z,28.9818,-94.9186,2.0,247.1629625,27.64712101,-99999.0,'11111222,11111222,99999999' 
TABS,ioos:station:wmo:42043:1,1997-08-02T13:00:00Z,28.9818,-94.9186,2.0,244.3140594,30.59301391,-99999.0,'11111222,11111222,99999999' 
TABS,ioos:station:wmo:42043:1,1997-08-02T13:30:00Z,28.9818,-94.9186,2.0,245.7437862,29.74597116,-99999.0,'11111222,11111222,99999999' 
TABS,ioos:station:wmo:42043:1,1997-08-02T14:00:00Z,28.9818,-94.9186,2.0,254.328695,29.24714687,-99999.0,'11111222,11111222,99999999' 
TABS,ioos:station:wmo:42043:1,1997-08-02T14:30:00Z,28.9818,-94.9186,2.0,274.4807008,28.54723279,-99999.0,'11111222,11111222,99999999' 
TABS,ioos:station:wmo:42043:1,1997-08-02T15:00:00Z,28.9818,-94.9186,2.0,278.3185876,18.52488327,-99999.0,'11111222,11111222,99999999' 
TABS,ioos:station:wmo:42043:1,1997-08-02T15:30:00Z,28.9818,-94.9186,2.0,272.4520924,24.31225411,-99999.0,'11111222,11111222,99999999' 
TABS,ioos:station:wmo:42043:1,1997-08-02T16:00:00Z,28.9818,-94.9186,2.0,269.5626609,19.67057193,-99999.0,'11111222,11111222,99999999' 
TABS,ioos:station:wmo:42043:1,1997-08-02T16:30:00Z,28.9818,-94.9186,2.0,273.8926196,21.95062869,-99999.0,'11111222,11111222,99999999' 
TABS,ioos:station:wmo:42043:1,1997-08-02T17:00:00Z,28.9818,-94.9186,2.0,274.6731026,21.9730312,-99999.0,'11111222,11111222,99999999' 
TABS,ioos:station:wmo:42043:1,1997-08-02T17:30:00Z,28.9818,-94.9186,2.0,267.2620103,21.77485017,-99999.0,'11111222,11111222,99999999' 
TABS,ioos:station:wmo:42043:1,1997-08-02T18:00:00Z,28.9818,-94.9186,2.0,267.9638611,12.66799511,-99999.0,'11111222,11111222,99999999' 
TABS,ioos:station:wmo:42043:1,1997-08-02T18:30:00Z,28.9818,-94.9186,2.0,258.4097814,24.489314,-99999.0,'11111222,11111222,99999999' 
TABS,ioos:station:wmo:42043:1,1997-08-02T19:00:00Z,28.9818,-94.9186,2.0,257.7866753,35.21702571,-99999.0,'11111222,11111222,99999999' 
TABS,ioos:station:wmo:42043:1,1997-08-02T19:30:00Z,28.9818,-94.9186,2.0,263.5225824,27.74710435,-99999.0,'11111222,11111222,99999999' 
TABS,ioos:station:wmo:42043:1,1997-08-02T20:00:00Z,28.9818,-94.9186,2.0,259.1274257,30.80289921,-99999.0,'11111222,11111222,99999999' 
TABS,ioos:station:wmo:42043:1,1997-08-02T20:30:00Z,28.9818,-94.9186,2.0,255.904769,37.94229303,-99999.0,'11111222,11111222,99999999' 
TABS,ioos:station:wmo:42043:1,1997-08-02T21:00:00Z,28.9818,-94.9186,2.0,249.9531561,41.71745558,-99999.0,'11111222,11111222,99999999' 
TABS,ioos:station:wmo:42043:1,1997-08-02T21:30:00Z,28.9818,-94.9186,2.0,248.4853721,37.79318986,-99999.0,'11111222,11111222,99999999' 
TABS,ioos:station:wmo:42043:1,1997-08-02T22:00:00Z,28.9818,-94.9186,2.0,249.0046872,35.75360821,-99999.0,'11111222,11111222,99999999' 
TABS,ioos:station:wmo:42043:1,1997-08-02T22:30:00Z,28.9818,-94.9186,2.0,247.2857835,43.61236637,-99999.0,'11111222,11111222,99999999' 
TABS,ioos:station:wmo:42043:1,1997-08-02T23:00:00Z,28.9818,-94.9186,2.0,246.0871153,48.89705922,-99999.0,'11111222,11111222,99999999' 
TABS,ioos:station:wmo:42043:1,1997-08-02T23:30:00Z,28.9818,-94.9186,2.0,245.5237207,47.47644679,-99999.0,'11111222,11111222,99999999' 
TABS,ioos:station:wmo:42043:1,1997-08-03T00:00:00Z,28.9818,-94.9186,2.0,243.9463623,52.57205531,-99999.0,'11111222,11111222,99999999' 
TABS,ioos:station:wmo:42043:1,1997-08-03T00:30:00Z,28.9818,-94.9186,2.0,245.7660942,54.08606475,-99999.0,'11111222,11111222,99999999' 
TABS,ioos:station:wmo:42043:1,1997-08-03T01:00:00Z,28.9818,-94.9186,2.0,246.7079866,50.12498379,-99999.0,'11111222,11111222,99999999' 
TABS,ioos:station:wmo:42043:1,1997-08-03T01:30:00Z,28.9818,-94.9186,2.0,247.0563731,52.7423786,-99999.0,'11111222,11111222,99999999' 
TABS,ioos:station:wmo:42043:1,1997-08-03T02:00:00Z,28.9818,-94.9186,2.0,247.9849274,52.87525697,-99999.0,'11111222,11111222,99999999' 
TABS,ioos:station:wmo:42043:1,1997-08-03T02:30:00Z,28.9818,-94.9186,2.0,248.5576439,52.98735038,-99999.0,'11111222,11111222,99999999' 
TABS,ioos:station:wmo:42043:1,1997-08-03T03:00:00Z,28.9818,-94.9186,2.0,251.253475,52.39971374,-99999.0,'11111222,11111222,99999999' 
TABS,ioos:station:wmo:42043:1,1997-08-03T03:30:00Z,28.9818,-94.9186,2.0,251.407508,51.87736019,-99999.0,'11111222,11111222,99999999' 
TABS,ioos:station:wmo:42043:1,1997-08-03T04:00:00Z,28.9818,-94.9186,2.0,251.5053458,48.8635406,-99999.0,'11111222,11111222,99999999' 
TABS,ioos:station:wmo:42043:1,1997-08-03T04:30:00Z,28.9818,-94.9186,2.0,254.6915132,47.42254738,-99999.0,'11111222,11111222,99999999' 
TABS,ioos:station:wmo:42043:1,1997-08-03T05:00:00Z,28.9818,-94.9186,2.0,255.866247,45.78594107,-99999.0,'11111222,11111222,99999999' 
TABS,ioos:station:wmo:42043:1,1997-08-03T05:30:00Z,28.9818,-94.9186,2.0,260.9215655,44.3657086,-99999.0,'11111222,11111222,99999999' 
TABS,ioos:station:wmo:42043:1,1997-08-03T06:00:00Z,28.9818,-94.9186,2.0,262.3677384,43.74752222,-99999.0,'11111222,11111222,99999999' 
TABS,ioos:station:wmo:42043:1,1997-08-03T06:30:00Z,28.9818,-94.9186,2.0,263.6805055,41.97502591,-99999.0,'11111222,11111222,99999999' 
TABS,ioos:station:wmo:42043:1,1997-08-03T07:00:00Z,28.9818,-94.9186,2.0,264.7174501,37.25821923,-99999.0,'11111222,11111222,99999999' 
TABS,ioos:station:wmo:42043:1,1997-08-03T07:30:00Z,28.9818,-94.9186,2.0,261.4494675,35.11020934,-99999.0,'11111222,11111222,99999999' 
TABS,ioos:station:wmo:42043:1,1997-08-03T08:00:00Z,28.9818,-94.9186,2.0,263.7734371,31.62654739,-99999.0,'11111222,11111222,99999999' 
TABS,ioos:station:wmo:42043:1,1997-08-03T08:30:00Z,28.9818,-94.9186,2.0,265.4206224,31.69115018,-99999.0,'11111222,11111222,99999999' 
TABS,ioos:station:wmo:42043:1,1997-08-03T09:00:00Z,28.9818,-94.9186,2.0,264.3620494,25.75456853,-99999.0,'11111222,11111222,99999999' 
TABS,ioos:station:wmo:42043:1,1997-08-03T09:30:00Z,28.9818,-94.9186,2.0,260.4834714,29.75951781,-99999.0,'11111222,11111222,99999999' 
TABS,ioos:station:wmo:42043:1,1997-08-03T10:00:00Z,28.9818,-94.9186,2.0,256.8857421,29.53011344,-99999.0,'11111222,11111222,99999999' 
TABS,ioos:station:wmo:42043:1,1997-08-03T10:30:00Z,28.9818,-94.9186,2.0,246.3343421,35.62593016,-99999.0,'11111222,11111222,99999999' 
TABS,ioos:station:wmo:42043:1,1997-08-03T11:00:00Z,28.9818,-94.9186,2.0,246.2749481,38.89723126,-99999.0,'11111222,11111222,99999999' 
TABS,ioos:station:wmo:42043:1,1997-08-03T11:30:00Z,28.9818,-94.9186,2.0,243.7486312,36.71678771,-99999.0,'11111222,11111222,99999999' 
TABS,ioos:station:wmo:42043:1,1997-08-03T12:00:00Z,28.9818,-94.9186,2.0,241.3259068,39.743953,-99999.0,'11111222,11111222,99999999' 
TABS,ioos:station:wmo:42043:1,1997-08-03T12:30:00Z,28.9818,-94.9186,2.0,238.4044951,39.52939413,-99999.0,'11111222,11111222,99999999' 
TABS,ioos:station:wmo:42043:1,1997-08-03T13:00:00Z,28.9818,-94.9186,2.0,234.6674179,38.90600982,-99999.0,'11111222,11111222,99999999' 
TABS,ioos:station:wmo:42043:1,1997-08-03T13:30:00Z,28.9818,-94.9186,2.0,235.5660627,35.05168327,-99999.0,'11111222,11111222,99999999' 
TABS,ioos:station:wmo:42043:1,1997-08-03T14:00:00Z,28.9818,-94.9186,2.0,234.012122,37.01438909,-99999.0,'11111222,11111222,99999999' 
TABS,ioos:station:wmo:42043:1,1997-08-03T14:30:00Z,28.9818,-94.9186,2.0,232.8399666,30.84239452,-99999.0,'11111222,11111222,99999999' 
TABS,ioos:station:wmo:42043:1,1997-08-03T15:00:00Z,28.9818,-94.9186,2.0,233.4869328,28.5545548,-99999.0,'11111222,11111222,99999999' 
TABS,ioos:station:wmo:42043:1,1997-08-03T15:30:00Z,28.9818,-94.9186,2.0,235.5183453,27.11355749,-99999.0,'11111222,11111222,99999999' 
TABS,ioos:station:wmo:42043:1,1997-08-03T16:00:00Z,28.9818,-94.9186,2.0,237.8044601,33.27669605,-99999.0,'11111222,11111222,99999999' 
TABS,ioos:station:wmo:42043:1,1997-08-03T16:30:00Z,28.9818,-94.9186,2.0,234.7100337,32.49035703,-99999.0,'11111222,11111222,99999999' 
TABS,ioos:station:wmo:42043:1,1997-08-03T17:00:00Z,28.9818,-94.9186,2.0,234.0197524,24.85099797,-99999.0,'11111222,11111222,99999999' 
TABS,ioos:station:wmo:42043:1,1997-08-03T17:30:00Z,28.9818,-94.9186,2.0,236.1729143,33.71754736,-99999.0,'11111222,11111222,99999999' 
TABS,ioos:station:wmo:42043:1,1997-08-03T18:00:00Z,28.9818,-94.9186,2.0,236.4411062,35.04050371,-99999.0,'11111222,11111222,99999999' 
TABS,ioos:station:wmo:42043:1,1997-08-03T18:30:00Z,28.9818,-94.9186,2.0,239.3834179,33.92990421,-99999.0,'11111222,11111222,99999999' 
TABS,ioos:station:wmo:42043:1,1997-08-03T19:00:00Z,28.9818,-94.9186,2.0,244.0683656,30.32293686,-99999.0,'11111222,11111222,99999999' 
TABS,ioos:station:wmo:42043:1,1997-08-03T19:30:00Z,28.9818,-94.9186,2.0,246.5837345,31.50457903,-99999.0,'11111222,11111222,99999999' 
TABS,ioos:station:wmo:42043:1,1997-08-03T20:00:00Z,28.9818,-94.9186,2.0,244.2356088,33.5890235,-99999.0,'11111222,11111222,99999999' 
TABS,ioos:station:wmo:42043:1,1997-08-03T20:30:00Z,28.9818,-94.9186,2.0,244.742519,32.1317242,-99999.0,'11111222,11111222,99999999' 
TABS,ioos:station:wmo:42043:1,1997-08-03T21:00:00Z,28.9818,-94.9186,2.0,247.3589572,36.00461776,-99999.0,'11111222,11111222,99999999' 
TABS,ioos:station:wmo:42043:1,1997-08-03T21:30:00Z,28.9818,-94.9186,2.0,247.6019127,26.58558444,-99999.0,'11111222,11111222,99999999' 
TABS,ioos:station:wmo:42043:1,1997-08-03T22:00:00Z,28.9818,-94.9186,2.0,243.8480211,37.18677856,-99999.0,'11111222,11111222,99999999' 
TABS,ioos:station:wmo:42043:1,1997-08-03T22:30:00Z,28.9818,-94.9186,2.0,246.2097411,38.42493461,-99999.0,'11111222,11111222,99999999' 
TABS,ioos:station:wmo:42043:1,1997-08-03T23:00:00Z,28.9818,-94.9186,2.0,253.5759013,41.62856952,-99999.0,'11111222,11111222,99999999' 
TABS,ioos:station:wmo:42043:1,1997-08-03T23:30:00Z,28.9818,-94.9186,2.0,251.1044773,40.94649191,-99999.0,'11111222,11111222,99999999' 
TABS,ioos:station:wmo:42043:1,1997-08-04T00:00:00Z,28.9818,-94.9186,2.0,248.9182249,35.61360695,-99999.0,'11111222,11111222,99999999' 
TABS,ioos:station:wmo:42043:1,1997-08-04T00:30:00Z,28.9818,-94.9186,2.0,243.8236886,39.51223228,-99999.0,'11111222,11111222,99999999' 
TABS,ioos:station:wmo:42043:1,1997-08-04T01:00:00Z,28.9818,-94.9186,2.0,244.6013831,42.38674911,-99999.0,'11111222,11111222,99999999' 
TABS,ioos:station:wmo:42043:1,1997-08-04T01:30:00Z,28.9818,-94.9186,2.0,246.694743,41.04908769,-99999.0,'11111222,11111222,99999999' 
TABS,ioos:station:wmo:42043:1,1997-08-04T02:00:00Z,28.9818,-94.9186,2.0,250.4907314,40.1553309,-99999.0,'11111222,11111222,99999999' 
TABS,ioos:station:wmo:42043:1,1997-08-04T02:30:00Z,28.9818,-94.9186,2.0,251.5696673,36.28081173,-99999.0,'11111222,11111222,99999999' 
TABS,ioos:station:wmo:42043:1,1997-08-04T03:00:00Z,28.9818,-94.9186,2.0,253.5653271,31.06934341,-99999.0,'11111222,11111222,99999999' 
TABS,ioos:station:wmo:42043:1,1997-08-04T03:30:00Z,28.9818,-94.9186,2.0,253.9077448,30.08892986,-99999.0,'11111222,11111222,99999999' 
TABS,ioos:station:wmo:42043:1,1997-08-04T04:00:00Z,28.9818,-94.9186,2.0,257.3311377,25.80829324,-99999.0,'11111222,11111222,99999999' 
TABS,ioos:station:wmo:42043:1,1997-08-04T04:30:00Z,28.9818,-94.9186,2.0,262.6456422,23.28150554,-99999.0,'11111222,11111222,99999999' 
TABS,ioos:station:wmo:42043:1,1997-08-04T05:00:00Z,28.9818,-94.9186,2.0,265.0950448,20.93665924,-99999.0,'11111222,11111222,99999999' 
TABS,ioos:station:wmo:42043:1,1997-08-04T05:30:00Z,28.9818,-94.9186,2.0,263.4415753,18.29974044,-99999.0,'11111222,11111222,99999999' 
TABS,ioos:station:wmo:42043:1,1997-08-04T06:00:00Z,28.9818,-94.9186,2.0,269.0541922,18.18247508,-99999.0,'11111222,11111222,99999999' 
TABS,ioos:station:wmo:42043:1,1997-08-04T06:30:00Z,28.9818,-94.9186,2.0,270.0004209,16.54,-99999.0,'11111222,11111222,99999999' 
TABS,ioos:station:wmo:42043:1,1997-08-04T07:00:00Z,28.9818,-94.9186,2.0,271.3264722,12.96347176,-99999.0,'11111222,11111222,99999999' 
TABS,ioos:station:wmo:42043:1,1997-08-04T07:30:00Z,28.9818,-94.9186,2.0,265.6753423,11.80360115,-99999.0,'11111222,11111222,99999999' 
TABS,ioos:station:wmo:42043:1,1997-08-04T08:00:00Z,28.9818,-94.9186,2.0,263.1998381,10.05069649,-99999.0,'11111222,11111222,99999999' 
TABS,ioos:station:wmo:42043:1,1997-08-04T08:30:00Z,28.9818,-94.9186,2.0,249.9884447,10.46161077,-99999.0,'11111222,11111222,99999999' 
TABS,ioos:station:wmo:42043:1,1997-08-04T09:00:00Z,28.9818,-94.9186,2.0,266.0946708,8.810454018,-99999.0,'11133222,11111222,99999999' 
TABS,ioos:station:wmo:42043:1,1997-08-04T09:30:00Z,28.9818,-94.9186,2.0,258.504998,9.735255518,-99999.0,'11133222,11111222,99999999' 
TABS,ioos:station:wmo:42043:1,1997-08-04T10:00:00Z,28.9818,-94.9186,2.0,239.4145329,11.41862514,-99999.0,'11111222,11111222,99999999' 
TABS,ioos:station:wmo:42043:1,1997-08-04T10:30:00Z,28.9818,-94.9186,2.0,246.61323,12.0172293,-99999.0,'11111222,11111222,99999999' 
TABS,ioos:station:wmo:42043:1,1997-08-04T11:00:00Z,28.9818,-94.9186,2.0,238.0060575,15.45794941,-99999.0,'11111222,11111222,99999999' 
TABS,ioos:station:wmo:42043:1,1997-08-04T11:30:00Z,28.9818,-94.9186,2.0,227.5137639,14.34686377,-99999.0,'11111222,11111222,99999999' 
TABS,ioos:station:wmo:42043:1,1997-08-04T12:00:00Z,28.9818,-94.9186,2.0,229.8767812,13.63997801,-99999.0,'11111222,11111222,99999999' 
TABS,ioos:station:wmo:42043:1,1997-08-04T12:30:00Z,28.9818,-94.9186,2.0,222.3979208,23.20995692,-99999.0,'11111222,11111222,99999999' 
TABS,ioos:station:wmo:42043:1,1997-08-04T13:00:00Z,28.9818,-94.9186,2.0,225.7897979,23.0750883,-99999.0,'11111222,11111222,99999999' 
TABS,ioos:station:wmo:42043:1,1997-08-04T13:30:00Z,28.9818,-94.9186,2.0,227.5111894,24.04351264,-99999.0,'11111222,11111222,99999999' 
TABS,ioos:station:wmo:42043:1,1997-08-04T14:00:00Z,28.9818,-94.9186,2.0,232.9612692,19.04208234,-99999.0,'11111222,11111222,99999999' 
TABS,ioos:station:wmo:42043:1,1997-08-04T14:30:00Z,28.9818,-94.9186,2.0,233.2314298,19.16203016,-99999.0,'11111222,11111222,99999999' 
TABS,ioos:station:wmo:42043:1,1997-08-04T15:00:00Z,28.9818,-94.9186,2.0,234.9546026,19.46987416,-99999.0,'11111222,11111222,99999999' 
TABS,ioos:station:wmo:42043:1,1997-08-04T15:30:00Z,28.9818,-94.9186,2.0,233.2314298,19.16203016,-99999.0,'11111222,11111222,99999999' 
TABS,ioos:station:wmo:42043:1,1997-08-04T16:00:00Z,28.9818,-94.9186,2.0,230.152425,24.6432648,-99999.0,'11111222,11111222,99999999' 